Radiation Dose at Monitoring Post of Fukushima Daini Nuclear Power Station
Date,Time,MP-1(microSv/h),MP-2(microSv/h),MP-3(microSv/h),MP-4(microSv/h),MP-5(microSv/h),MP-6(microSv/h),MP-7(microSv/h),Wind Direction,Wind Velocity(m/s),Rain
2019/02/25,00:00,0.217,0.195,0.317,0.295,0.278,0.159,0.096,southwest,7.1,No
2019/02/25,00:10,0.215,0.196,0.317,0.296,0.277,0.159,0.096,southwest,7.5,No
2019/02/25,00:20,0.217,0.196,0.317,0.295,0.278,0.159,0.096,southwest,9.5,No
2019/02/25,00:30,0.217,0.194,0.315,0.295,0.278,0.159,0.096,southwest,9.8,No
2019/02/25,00:40,0.217,0.195,0.315,0.297,0.278,0.159,0.095,southwest,8.8,No
2019/02/25,00:50,0.215,0.196,0.316,0.295,0.278,0.159,0.095,southwest,9.2,No
2019/02/25,01:00,0.215,0.195,0.316,0.297,0.278,0.160,0.096,southwest,8.1,No
2019/02/25,01:10,0.216,0.196,0.317,0.296,0.279,0.158,0.095,southwest,7.3,No
2019/02/25,01:20,0.216,0.195,0.316,0.296,0.277,0.160,0.096,south-southwest,5.5,No
2019/02/25,01:30,0.216,0.195,0.317,0.296,0.278,0.159,0.095,south-southwest,5.7,No
2019/02/25,01:40,0.217,0.195,0.315,0.296,0.277,0.159,0.096,south-southwest,5.5,No
2019/02/25,01:50,0.216,0.194,0.316,0.297,0.277,0.159,0.095,south,4.8,No
2019/02/25,02:00,0.216,0.197,0.317,0.296,0.279,0.159,0.095,south-southwest,4.0,No
2019/02/25,02:10,0.216,0.195,0.316,0.296,0.278,0.159,0.096,southwest,3.2,No
2019/02/25,02:20,0.216,0.196,0.315,0.296,0.278,0.159,0.095,southwest,3.0,No
2019/02/25,02:30,0.216,0.196,0.316,0.294,0.277,0.158,0.095,south-southwest,2.7,No
2019/02/25,02:40,0.216,0.196,0.316,0.295,0.278,0.159,0.096,south-southwest,2.4,No
2019/02/25,02:50,0.215,0.195,0.314,0.296,0.278,0.160,0.096,south-southwest,1.8,No
2019/02/25,03:00,0.217,0.196,0.317,0.296,0.277,0.158,0.095,southwest,3.0,No
2019/02/25,03:10,0.216,0.195,0.317,0.296,0.279,0.158,0.096,south-southwest,2.6,No
2019/02/25,03:20,0.216,0.196,0.315,0.296,0.277,0.158,0.095,south-southwest,3.3,No
2019/02/25,03:30,0.215,0.194,0.316,0.296,0.278,0.159,0.096,south,4.1,No
2019/02/25,03:40,0.216,0.195,0.317,0.296,0.278,0.160,0.096,south,3.5,No
2019/02/25,03:50,0.218,0.196,0.316,0.296,0.278,0.158,0.096,south-southwest,4.0,No
2019/02/25,04:00,0.216,0.195,0.315,0.296,0.278,0.158,0.096,south,3.7,No
2019/02/25,04:10,0.215,0.194,0.316,0.296,0.276,0.158,0.096,south,4.2,No
2019/02/25,04:20,0.216,0.195,0.317,0.297,0.277,0.159,0.096,south-southwest,4.3,No
2019/02/25,04:30,0.216,0.195,0.317,0.295,0.278,0.158,0.096,south-southwest,5.2,No
2019/02/25,04:40,0.217,0.196,0.317,0.294,0.276,0.159,0.096,south-southwest,5.4,No
2019/02/25,04:50,0.216,0.195,0.317,0.296,0.277,0.159,0.096,southwest,5.8,No
2019/02/25,05:00,0.216,0.195,0.315,0.296,0.278,0.159,0.096,south-southwest,5.7,No
2019/02/25,05:10,0.216,0.195,0.316,0.295,0.277,0.158,0.095,southwest,6.6,No
2019/02/25,05:20,0.216,0.195,0.317,0.296,0.278,0.158,0.095,southwest,7.9,No
2019/02/25,05:30,0.215,0.194,0.317,0.297,0.278,0.159,0.095,southwest,7.5,No
2019/02/25,05:40,0.216,0.195,0.315,0.296,0.277,0.158,0.095,south-southwest,5.7,No
2019/02/25,05:50,0.216,0.196,0.318,0.294,0.278,0.159,0.096,southwest,5.9,No
2019/02/25,06:00,0.216,0.195,0.317,0.296,0.279,0.159,0.096,southwest,6.5,No
2019/02/25,06:10,0.216,0.195,0.317,0.296,0.277,0.159,0.096,southwest,5.6,No
2019/02/25,06:20,0.215,0.196,0.316,0.295,0.277,0.159,0.095,southwest,4.9,No
2019/02/25,06:30,0.217,0.194,0.315,0.296,0.278,0.159,0.096,west,4.3,No
2019/02/25,06:40,0.216,0.196,0.317,0.296,0.278,0.159,0.096,west,5.3,No
2019/02/25,06:50,0.216,0.196,0.316,0.295,0.278,0.159,0.096,west-southwest,5.7,No
2019/02/25,07:00,0.216,0.195,0.316,0.295,0.278,0.160,0.096,west-southwest,6.1,No
2019/02/25,07:10,0.216,0.196,0.318,0.294,0.280,0.159,0.095,west-southwest,5.9,No
2019/02/25,07:20,0.215,0.195,0.316,0.297,0.277,0.159,0.096,southwest,3.2,No
2019/02/25,07:30,0.216,0.196,0.317,0.295,0.278,0.159,0.095,south-southeast,2.7,No
2019/02/25,07:40,0.218,0.195,0.315,0.295,0.278,0.159,0.095,south-southeast,2.3,No
2019/02/25,07:50,0.215,0.195,0.316,0.296,0.278,0.160,0.095,south-southeast,2.1,No
2019/02/25,08:00,0.215,0.194,0.316,0.295,0.277,0.159,0.094,southeast,1.7,No
2019/02/25,08:10,0.216,0.196,0.316,0.296,0.279,0.159,0.095,south-southwest,1.5,No
2019/02/25,08:20,0.216,0.196,0.316,0.295,0.279,0.159,0.096,-,CALM,No
2019/02/25,08:30,0.216,0.195,0.317,0.295,0.278,0.159,0.096,southwest,2.3,No
2019/02/25,08:40,0.216,0.196,0.315,0.295,0.277,0.159,0.096,west-southwest,5.6,No
2019/02/25,08:50,0.215,0.195,0.316,0.294,0.276,0.158,0.095,west-southwest,5.4,No
2019/02/25,09:00,0.215,0.194,0.315,0.294,0.279,0.158,0.095,west-southwest,7.0,No
2019/02/25,09:10,0.215,0.194,0.316,0.297,0.276,0.158,0.095,west-southwest,7.5,No
2019/02/25,09:20,0.213,0.195,0.316,0.293,0.278,0.159,0.096,west-southwest,6.9,No
2019/02/25,09:30,0.216,0.196,0.314,0.295,0.277,0.158,0.095,southwest,7.0,No
2019/02/25,09:40,0.213,0.194,0.316,0.293,0.279,0.159,0.095,west-southwest,6.5,No
2019/02/25,09:50,0.215,0.193,0.315,0.295,0.276,0.158,0.094,southwest,7.3,No
2019/02/25,10:00,0.213,0.194,0.315,0.292,0.277,0.158,0.095,southwest,6.3,No
2019/02/25,10:10,0.214,0.194,0.317,0.295,0.275,0.157,0.095,southwest,6.7,No
2019/02/25,10:20,0.214,0.195,0.316,0.293,0.279,0.159,0.095,south-southwest,6.7,No
2019/02/25,10:30,0.213,0.195,0.316,0.295,0.276,0.158,0.095,southwest,7.8,No
2019/02/25,10:40,0.215,0.194,0.314,0.292,0.277,0.159,0.095,southwest,7.6,No
2019/02/25,10:50,0.213,0.196,0.316,0.296,0.278,0.158,0.095,west-southwest,6.2,Yes
2019/02/25,11:00,0.215,0.194,0.316,0.295,0.277,0.159,0.095,west-southwest,8.7,Yes
2019/02/25,11:10,0.214,0.196,0.316,0.297,0.279,0.159,0.096,west-southwest,6.5,Yes
2019/02/25,11:20,0.216,0.194,0.316,0.295,0.279,0.159,0.096,west,5.6,No
2019/02/25,11:30,0.215,0.196,0.316,0.296,0.280,0.159,0.096,west-southwest,8.1,No
2019/02/25,11:40,0.215,0.194,0.316,0.295,0.275,0.158,0.095,west-southwest,7.5,No
2019/02/25,11:50,0.215,0.196,0.317,0.296,0.280,0.159,0.095,west-southwest,5.4,No
2019/02/25,12:00,0.214,0.196,0.316,0.296,0.278,0.159,0.095,west-southwest,4.9,No
2019/02/25,12:10,0.215,0.195,0.316,0.293,0.279,0.159,0.095,west,6.6,No
2019/02/25,12:20,0.215,0.195,0.315,0.295,0.278,0.158,0.095,west-northwest,6.2,No
2019/02/25,12:30,0.216,0.195,0.314,0.294,0.277,0.160,0.096,west,7.6,No
2019/02/25,12:40,0.214,0.194,0.316,0.295,0.279,0.158,0.096,west,8.2,No
2019/02/25,12:50,0.217,0.194,0.315,0.292,0.276,0.159,0.096,west,7.3,No
2019/02/25,13:00,0.214,0.194,0.318,0.296,0.279,0.159,0.095,west,6.3,No
2019/02/25,13:10,0.215,0.195,0.313,0.295,0.278,0.158,0.095,west-northwest,4.9,No
2019/02/25,13:20,0.215,0.196,0.317,0.296,0.277,0.160,0.095,west,6.7,No
2019/02/25,13:30,0.214,0.195,0.315,0.296,0.280,0.159,0.095,west-northwest,5.2,No
2019/02/25,13:40,0.216,0.195,0.318,0.293,0.276,0.159,0.095,west-northwest,7.5,No
2019/02/25,13:50,0.212,0.195,0.314,0.297,0.280,0.158,0.095,west-northwest,6.6,No
2019/02/25,14:00,0.215,0.194,0.316,0.295,0.279,0.159,0.096,west-northwest,6.6,No
2019/02/25,14:10,0.214,0.195,0.317,0.295,0.275,0.159,0.095,west-northwest,8.4,No
2019/02/25,14:20,0.215,0.194,0.316,0.296,0.278,0.158,0.094,west-northwest,6.3,No
2019/02/25,14:30,0.214,0.195,0.317,0.294,0.276,0.160,0.095,west-northwest,5.3,No
2019/02/25,14:40,0.215,0.194,0.317,0.297,0.279,0.158,0.095,west-northwest,5.6,No
2019/02/25,14:50,0.216,0.194,0.317,0.294,0.279,0.159,0.096,west-northwest,6.8,No
2019/02/25,15:00,0.215,0.194,0.317,0.296,0.277,0.158,0.096,west-northwest,6.2,No
2019/02/25,15:10,0.216,0.196,0.315,0.294,0.280,0.159,0.097,west-northwest,5.9,No
2019/02/25,15:20,0.214,0.195,0.319,0.296,0.278,0.159,0.095,west,7.1,No
2019/02/25,15:30,0.215,0.195,0.316,0.296,0.281,0.158,0.094,west,6.4,No
2019/02/25,15:40,0.215,0.195,0.319,0.297,0.278,0.158,0.096,west,5.6,No
2019/02/25,15:50,0.215,0.195,0.315,0.295,0.281,0.159,0.095,northwest,3.8,No
2019/02/25,16:00,0.215,0.194,0.318,0.295,0.277,0.159,0.095,west,6.2,No
2019/02/25,16:10,0.215,0.195,0.316,0.295,0.278,0.158,0.096,west,5.4,No
2019/02/25,16:20,0.216,0.196,0.317,0.295,0.278,0.158,0.096,west-northwest,2.7,No
2019/02/25,16:30,0.215,0.196,0.316,0.298,0.280,0.158,0.096,north,2.0,No
2019/02/25,16:40,0.217,0.195,0.317,0.295,0.278,0.159,0.095,north-northwest,1.0,No
2019/02/25,16:50,0.214,0.195,0.316,0.296,0.280,0.160,0.095,north,0.6,No
2019/02/25,17:00,0.215,0.195,0.317,0.296,0.278,0.159,0.096,-,CALM,No
2019/02/25,17:10,0.216,0.196,0.318,0.296,0.279,0.160,0.096,-,CALM,No
2019/02/25,17:20,0.216,0.193,0.317,0.296,0.278,0.159,0.096,southwest,1.6,No
2019/02/25,17:30,0.215,0.195,0.316,0.295,0.278,0.159,0.095,west-southwest,3.0,No
2019/02/25,17:40,0.216,0.196,0.318,0.296,0.280,0.160,0.096,west,3.5,No
2019/02/25,17:50,0.216,0.195,0.316,0.297,0.278,0.160,0.095,west,4.5,No
2019/02/25,18:00,0.216,0.195,0.318,0.295,0.280,0.160,0.096,west,5.6,No
2019/02/25,18:10,0.216,0.196,0.316,0.297,0.279,0.159,0.096,west,5.7,No
2019/02/25,18:20,0.216,0.196,0.315,0.296,0.278,0.160,0.095,west,5.6,No
2019/02/25,18:30,0.216,0.195,0.318,0.296,0.278,0.159,0.095,west,5.5,No
2019/02/25,18:40,0.217,0.195,0.316,0.296,0.278,0.159,0.095,west-northwest,4.0,No
2019/02/25,18:50,0.216,0.194,0.317,0.296,0.279,0.160,0.096,west-northwest,3.0,No
2019/02/25,19:00,0.216,0.195,0.315,0.297,0.277,0.159,0.096,west-northwest,2.7,No
2019/02/25,19:10,0.217,0.194,0.318,0.297,0.278,0.160,0.096,west-northwest,4.4,No
2019/02/25,19:20,0.216,0.195,0.316,0.297,0.279,0.160,0.096,northwest,4.5,No
2019/02/25,19:30,0.216,0.195,0.316,0.295,0.278,0.159,0.095,west-northwest,5.1,No
2019/02/25,19:40,0.216,0.194,0.318,0.296,0.278,0.159,0.096,west-northwest,5.4,No
2019/02/25,19:50,0.213,0.196,0.317,0.297,0.278,0.159,0.095,west-northwest,5.5,No
2019/02/25,20:00,0.215,0.195,0.317,0.295,0.279,0.160,0.095,west-northwest,3.5,No
2019/02/25,20:10,0.215,0.196,0.316,0.296,0.278,0.159,0.095,northwest,2.6,No
2019/02/25,20:20,0.216,0.195,0.315,0.296,0.278,0.159,0.095,northwest,2.5,No
2019/02/25,20:30,0.216,0.195,0.317,0.296,0.277,0.160,0.095,north-northwest,2.0,No
2019/02/25,20:40,0.216,0.196,0.317,0.296,0.278,0.160,0.097,north-northwest,3.2,No
2019/02/25,20:50,0.216,0.195,0.316,0.297,0.278,0.160,0.096,north-northwest,5.2,No
2019/02/25,21:00,0.216,0.196,0.317,0.296,0.277,0.160,0.096,north-northwest,5.7,No
2019/02/25,21:10,0.217,0.196,0.317,0.295,0.278,0.159,0.097,northwest,3.7,No
2019/02/25,21:20,0.217,0.196,0.317,0.297,0.279,0.160,0.095,north-northwest,2.7,No
2019/02/25,21:30,0.215,0.195,0.317,0.297,0.278,0.160,0.096,northwest,4.5,No
2019/02/25,21:40,0.216,0.196,0.317,0.296,0.278,0.159,0.095,northwest,4.6,No
2019/02/25,21:50,0.216,0.196,0.318,0.297,0.278,0.160,0.097,northwest,4.3,No
2019/02/25,22:00,0.216,0.194,0.317,0.298,0.279,0.159,0.096,north-northwest,4.6,No
2019/02/25,22:10,0.217,0.196,0.318,0.296,0.277,0.159,0.096,north-northeast,3.8,No
2019/02/25,22:20,0.217,0.196,0.318,0.297,0.279,0.159,0.096,north,3.0,No
2019/02/25,22:30,0.217,0.194,0.318,0.298,0.278,0.159,0.095,northwest,2.2,No
2019/02/25,22:40,0.216,0.196,0.317,0.297,0.278,0.160,0.096,north-northwest,4.7,No
2019/02/25,22:50,0.216,0.197,0.317,0.296,0.278,0.159,0.096,north-northwest,3.9,No
2019/02/25,23:00,0.216,0.197,0.316,0.296,0.278,0.160,0.096,north-northwest,3.3,No
2019/02/25,23:10,0.215,0.196,0.317,0.297,0.278,0.160,0.096,north-northwest,5.0,No
2019/02/25,23:20,0.217,0.196,0.317,0.298,0.278,0.159,0.096,north,7.4,No
2019/02/25,23:30,0.217,0.196,0.317,0.297,0.278,0.158,0.095,north-northwest,8.1,No
2019/02/25,23:40,0.217,0.196,0.317,0.295,0.278,0.160,0.096,north-northwest,8.1,No
2019/02/25,23:50,0.217,0.196,0.318,0.297,0.278,0.159,0.096,north-northwest,8.3,No
